ARIANE 42P DEB, 44514

Orbit data source: Space-Track

ARIANE 42P DEB, 44514 is space debris in LEO originally from a launch on Mon, 10 Aug 1992 UTC launched from the French Guiana (FRGUI). Debris objects in space refer to the collection of defunct objects orbiting the Earth. Examples of debris include non-operational satellites, rocket bodies, and fragments generated from explosions, collisions, or faulty payload assembly.

Loading next visibility...
ARIANE 42P DEB details
Identifier
44514, 1992-052M
Orbit
LEO
Last TLE update3 days ago
Origin
Flag of FRArianespace (FR)
ManufacturerArianeGroup
MissionSpacecraft
Bus & MotorUnknown
MassUnknown
Launch date (UTC)
1992-08-10 (32 years ago)
Launch vehicleUnknown
Launch site
French Guiana (FRGUI)
Object type
Payload
Rocket body
Debris
Shape & HBRUnknown
Radar Cross SectionSmall (<0.1 m²)

Expand to show TLE details & history

TLE from 3 days ago
0 ARIANE 42P DEB
1 44514U 92052M   24357.99209652  .00004044  00000-0  12789-1 0  9999
2 44514  65.7815 208.4925 0256022 238.6572 118.9164 12.94086009251627
Epoch: 2024-12-22T23:48Z
Definitive object data (Epoch: 2024-12-22T23:48:37.139Z)
Latitude0.00001°
Longitude119.31681°
Altitude1,385.909 km
Speed7.121 km/s
True Right ascension13h 53m 58s
True Declination0° 00' 00"
Sunlit
Object was in daylight at TLE epoch
Visualization TLE readout
Latitude63.30674°
Longitude-130.94634°
Altitude1,432.339 km
Speed7.087 km/s
Apparent Right ascension21h 16m 31s
Apparent Declination18° 55' 15"
Sunlit
Object is in daylight
Visualization observer readout
Local Sidereal Time09:19:06
Azimuth0.715° NNE
Elevation-31.16°
Doppler factor1
Orbital elements
Apogee altitude1,480.096 km
Perigee altitude1,087.765 km
Semi-major axis7,662.067 km
Eccentricity0.0256022
Inclination65.7815°
RAAN208.4925°
Arg. of periapsis238.6572°
True anomaly121.44445°
Mean anomaly118.9164°
Eccentric anomaly120.1844°
Mean motion3.23612 °/min
BSTAR0.012789
Orbital period111.24 mins
Loading maneuver chart data...
Loading historical data...
Loading historical data...
Loading historical data...
Loading historical data...
Loading historical data...
Loading historical data...
Loading historical data...

ARIANE 42P DEB Visibility forecast

Observer location: undefined°, undefined

Span
Click to sort rows by Start time (UTC) header in descending order
Start Az.
Max El. time (UTC)
Max El. Az.
Max El.
End time (UTC)
End Az.
8 mins2024-12-26 13:16:00.240Z123.687° SE2024-12-26 13:19:00.240Z102.162° ESE14.717°2024-12-26 13:24:00.240Z67.387° ENE
15 mins2024-12-26 15:06:00.240Z198.656° SSW2024-12-26 15:13:00.240Z108.425° ESE44.141°2024-12-26 15:21:00.240Z33.871° NE
14 mins2024-12-26 17:02:00.240Z262.207° W2024-12-26 17:09:00.240Z322.846° NNW27.788°2024-12-26 17:16:00.240Z17.15° NNE
5 mins2024-12-26 19:05:00.240Z332.319° NNW2024-12-26 19:07:00.240Z346.344° N12.453°2024-12-26 19:10:00.240Z7.025° NNE
6 mins2024-12-26 21:04:00.240Z359.047° N2024-12-26 21:06:00.240Z13.357° NNE12.903°2024-12-26 21:10:00.240Z42.222° NE
13 mins2024-12-26 22:58:00.240Z345.309° N2024-12-26 23:04:00.240Z38.129° NE29.873°2024-12-26 23:11:00.240Z106.038° ESE
14 mins2024-12-27 00:53:00.240Z320.862° NNW2024-12-27 01:00:00.240Z236.747° WSW40.913°2024-12-27 01:07:00.240Z169.313° S
|